Flag for Australia Weather past 2 weeks in Alice Springs, Northern Territory, Australia

Now
57 °F

Clear.


Feels Like: 57 °F
Forecast: 54 / 80 °F
Wind: No wind

Location: Alice Springs Aerodrome


UV Index: 7 (High)

Visibility: N/A


Pressure: 30.15 "Hg

Humidity: 77%

Dew point: 50 °F

Location of Alice SpringsLocation

Historic Weather in Alice Springs

°F

Alice Springs temperature yesterday

Maximum temperature yesterday: 77 °F (at 2:30 PM)
Minimum temperature yesterday: 54 °F (at 5:00 AM)
Average temperature yesterday: 65 °F

Past Weeks' High & Low Weather Summary

 TemperatureHumidityPressure
High100 °F (Apr 2, 1:00 PM)100% (Apr 8, 8:34 PM)30.18 "Hg (Apr 8, 8:34 PM)
Low52 °F (Apr 15, 6:00 AM)10% (Apr 2, 1:00 PM)29.80 "Hg (Apr 2, 3:30 PM)
Average71 °F63%30.02 "Hg
* Reported Apr 1 11:30 PM — Apr 16 11:30 PM, Alice Springs, Weather by CustomWeather, © 2014

Note: Actual official high and low records may vary slightly from our data, if they occured in-between our weather recording intervals... More about our weather records

Advertising

Historic Weather Conditions — Data for Previous 24 hours

 ConditionsComfort  
Time TempWeatherWind HumidityBarometerVisibility
11:30 PM
Apr 16
57 °FClear.No wind77%30.15 "HgN/A
10:30 PM61 °FClear.3 mph59%30.15 "HgN/A
9:30 PM63 °FClear.5 mph56%30.12 "HgN/A
9:00 PM64 °FClear.6 mph52%30.12 "HgN/A
8:30 PM63 °FClear.8 mph59%30.12 "HgN/A
8:00 PM66 °FClear.7 mph46%30.12 "HgN/A
7:30 PM66 °FClear.7 mph49%30.09 "HgN/A
7:00 PM68 °FClear.7 mph43%30.09 "HgN/A
6:30 PM72 °FClear.8 mph33%30.09 "HgN/A
6:00 PM73 °FClear.10 mph29%30.07 "HgN/A
5:30 PM75 °FSunny.13 mph25%30.07 "HgN/A
5:00 PM77 °FSunny.14 mph26%30.07 "Hg10 mi
4:30 PM77 °FSunny.12 mph24%30.07 "Hg10 mi
4:00 PM77 °FSunny.10 mph26%30.07 "Hg10 mi
3:30 PM77 °FSunny.12 mph26%30.07 "Hg10 mi
3:00 PM77 °FPassing clouds.9 mph28%30.07 "HgN/A
2:30 PM77 °FPassing clouds.12 mph30%30.09 "HgN/A
2:00 PM75 °FPassing clouds.12 mph31%30.09 "HgN/A
1:30 PM75 °FSunny.12 mph31%30.09 "Hg10 mi
12:30 PM73 °FSunny.7 mph36%30.12 "Hg10 mi
12:00 PM73 °FSunny.9 mph38%30.15 "Hg10 mi
11:30 AM73 °FSunny.13 mph36%30.15 "Hg10 mi
11:00 AM73 °FSunny.15 mph36%30.18 "Hg10 mi
10:30 AM72 °FSunny.12 mph41%30.18 "Hg10 mi
8:30 AM63 °FSunny.No wind68%30.18 "Hg10 mi
8:00 AM59 °FSunny.5 mph77%30.15 "Hg10 mi
7:30 AM55 °FSunny.5 mph88%30.15 "Hg10 mi
7:00 AM54 °FSunny.6 mph88%30.15 "Hg10 mi
6:30 AM54 °FSunny.5 mph88%30.12 "Hg10 mi
6:00 AM54 °FClear.5 mph88%30.12 "Hg10 mi
5:30 AM54 °FClear.6 mph88%30.12 "HgN/A
5:00 AM54 °FClear.3 mph88%30.12 "HgN/A
4:30 AM55 °FClear.1 mph82%30.12 "HgN/A
4:00 AM55 °FClear.3 mph82%30.12 "HgN/A
3:30 AM55 °FClear.5 mph82%30.12 "HgN/A
2:30 AM57 °FClear.6 mph77%30.12 "HgN/A
2:00 AM59 °FClear.5 mph72%30.12 "HgN/A
1:30 AM59 °FClear.2 mph72%30.12 "HgN/A
1:00 AM59 °FClear.3 mph77%30.12 "HgN/A
12:30 AM59 °FClear.5 mph77%30.12 "HgN/A
12:00 AM61 °FClear.7 mph72%30.12 "HgN/A
Weather by CustomWeather, © 2014

See weather overview